KI6IKQ Weather Reports


time (UTC)temp
F
wind
direction
speed
knots
gust
knots
rain 1hr
in
rain 24hr
in
rain mn
in
humidity
%
barometer
mb
20260510001803 90 322 3.5 8.7 0.00 0.00 0.00 45 1010.1
20260510000903 90 326 6.1 10.4 0.00 0.00 0.00 43 1010.1
20260510000003 90 324 3.5 9.6 0.00 0.00 0.00 42 1010.1
20260509235403 90 318 4.3 10.4 0.00 0.00 0.00 43 1010.1
20260509234503 90 321 4.3 11.3 0.00 0.00 0.00 41 1010.1
20260509233603 91 320 5.2 11.3 0.00 0.00 0.00 41 1010.2
20260509232703 91 324 5.2 10.4 0.00 0.00 0.00 41 1010.2
20260509231803 91 312 5.2 10.4 0.00 0.00 0.00 41 1010.2
20260509230903 90 333 5.2 11.3 0.00 0.00 0.00 40 1010.4
20260509230003 90 336 5.2 9.6 0.00 0.00 0.00 40 1010.3
20260509225403 90 332 6.1 11.3 0.00 0.00 0.00 38 1010.6
20260509224503 90 321 5.2 11.3 0.00 0.00 0.00 38 1010.6
20260509223603 90 325 4.3 7.8 0.00 0.00 0.00 38 1010.7
20260509222703 90 317 3.5 8.7 0.00 0.00 0.00 38 1011.0
20260509221803 90 320 4.3 11.3 0.00 0.00 0.00 39 1011.1
20260509220903 90 319 5.2 11.3 0.00 0.00 0.00 37 1011.2
20260509220024 89 328 5.2 11.3 0.00 0.00 0.00 38 1011.3
20260509215424 89 327 5.2 11.3 0.00 0.00 0.00 38 1011.3
20260509214503 89 330 4.3 10.4 0.00 0.00 0.00 39 1011.4
20260509213603 89 320 4.3 9.6 0.00 0.00 0.00 40 1011.6
20260509212703 89 316 4.3 9.6 0.00 0.00 0.00 41 1011.6
20260509211803 88 320 4.3 10.4 0.00 0.00 0.00 42 1011.7
20260509210903 88 318 3.5 7.8 0.00 0.00 0.00 42 1011.8
20260509210003 87 330 4.3 9.6 0.00 0.00 0.00 42 1012.0
20260509205403 87 330 4.3 9.6 0.00 0.00 0.00 42 1012.0
20260509204503 87 321 4.3 7.8 0.00 0.00 0.00 42 1012.0
20260509203603 87 323 4.3 10.4 0.00 0.00 0.00 45 1012.1
20260509202703 86 325 4.3 11.3 0.00 0.00 0.00 45 1012.2
20260509201803 86 313 5.2 8.7 0.00 0.00 0.00 47 1012.4
20260509200903 86 323 5.2 11.3 0.00 0.00 0.00 47 1012.4
20260509200003 85 320 4.3 9.6 0.00 0.00 0.00 47 1012.5
20260509195403 85 323 5.2 9.6 0.00 0.00 0.00 47 1012.5
20260509194503 85 317 3.5 7.8 0.00 0.00 0.00 47 1012.7
20260509193603 84 318 4.3 8.7 0.00 0.00 0.00 48 1012.8
20260509192703 83 319 3.5 8.7 0.00 0.00 0.00 51 1013.0
20260509191803 83 319 4.3 8.7 0.00 0.00 0.00 50 1013.2
20260509190903 82 321 3.5 9.6 0.00 0.00 0.00 52 1013.1
20260509190003 82 323 3.5 7.8 0.00 0.00 0.00 53 1013.2
20260509185403 81 310 4.3 8.7 0.00 0.00 0.00 53 1013.3
20260509184503 80 322 4.3 8.7 0.00 0.00 0.00 54 1013.4
20260509183603 80 319 4.3 8.7 0.00 0.00 0.00 55 1013.4
20260509182703 80 314 3.5 10.4 0.00 0.00 0.00 56 1013.3
20260509181803 79 307 3.5 8.7 0.00 0.00 0.00 57 1013.5
20260509180903 78 312 3.5 9.6 0.00 0.00 0.00 56 1013.6
20260509180024 78 301 3.5 7.0 0.00 0.00 0.00 56 1013.6
20260509175403 78 304 3.5 7.8 0.00 0.00 0.00 56 1013.8
20260509174503 77 310 3.5 7.8 0.00 0.00 0.00 55 1013.9
20260509173624 77 307 2.6 7.8 0.00 0.00 0.00 57 1013.7
20260509172703 76 297 2.6 7.0 0.00 0.00 0.00 56 1013.7
20260509171803 76 306 3.5 7.0 0.00 0.00 0.00 57 1013.7
20260509170903 74 313 2.6 7.0 0.00 0.00 0.00 58 1013.7
20260509170003 74 281 2.6 7.8 0.00 0.00 0.00 60 1013.8
20260509165403 73 260 2.6 4.3 0.00 0.00 0.00 59 1013.8
20260509164506 73 301 1.7 6.1 0.00 0.00 0.00 60 1013.9
20260509163624 72 299 1.7 3.5 0.00 0.00 0.00 62 1013.9
20260509162724 71 311 2.6 6.1 0.00 0.00 0.00 64 1013.9
20260509161824 70 328 1.7 4.3 0.00 0.00 0.00 65 1013.9
20260509160924 69 292 1.7 5.2 0.00 0.00 0.00 66 1013.8
20260509160026 69 327 1.7 3.5 0.00 0.00 0.00 68 1014.0
20260509155403 68 353 1.7 3.5 0.00 0.00 0.00 69 1014.0
20260509154503 68 30 1.7 3.5 0.00 0.00 0.00 70 1013.9
20260509153603 67 30 0.9 3.5 0.00 0.00 0.00 72 1013.9
20260509152703 66 30 1.7 2.6 0.00 0.00 0.00 74 1013.9
20260509151824 65 33 1.7 3.5 0.00 0.00 0.00 75 1014.0
20260509150924 64 35 0.9 3.5 0.00 0.00 0.00 76 1014.1
20260509150024 63 280 1.7 3.5 0.00 0.00 0.00 77 1014.2
20260509145424 63 254 1.7 3.5 0.00 0.00 0.00 78 1014.1
20260509144524 62 236 1.7 3.5 0.00 0.00 0.00 79 1014.0
20260509143626 61 219 0.9 3.5 0.00 0.00 0.00 81 1014.0
20260509142724 60 181 0.9 1.7 0.00 0.00 0.00 83 1013.9
20260509141824 58 180 0.9 1.7 0.00 0.00 0.00 85 1013.9
20260509140924 57 279 0.9 2.6 0.00 0.00 0.00 86 1013.9
20260509140024 56 290 0.9 2.6 0.00 0.00 0.00 86 1013.8
20260509135424 55 290 0.9 3.5 0.00 0.00 0.00 87 1013.7
20260509134503 54 290 0.9 3.5 0.00 0.00 0.00 87 1013.6
20260509133603 54 292 0.0 0.9 0.00 0.00 0.00 86 1013.6
20260509132703 54 294 0.0 0.9 0.00 0.00 0.00 85 1013.6
20260509131803 54 295 0.9 1.7 0.00 0.00 0.00 85 1013.5
20260509130903 54 294 0.0 1.7 0.00 0.00 0.00 84 1013.4
20260509130024 54 294 0.0 0.9 0.00 0.00 0.00 83 1013.2
20260509125424 54 293 0.0 1.7 0.00 0.00 0.00 83 1013.2
20260509124524 55 296 0.9 2.6 0.00 0.00 0.00 83 1013.2
20260509123624 55 277 0.9 1.7 0.00 0.00 0.00 83 1013.3
20260509122724 55 258 0.9 1.7 0.00 0.00 0.00 84 1013.2
20260509121803 54 269 0.9 3.5 0.00 0.00 0.00 85 1013.1
20260509120924 54 287 0.9 1.7 0.00 0.00 0.00 85 1013.1
20260509120024 54 294 0.9 3.5 0.00 0.00 0.00 85 1013.2
20260509115424 54 303 0.9 1.7 0.00 0.00 0.00 84 1013.1
20260509114524 54 288 0.9 1.7 0.00 0.00 0.00 84 1013.1
20260509113624 54 293 0.9 1.7 0.00 0.00 0.00 84 1013.1
20260509112703 54 310 0.9 1.7 0.00 0.00 0.00 83 1013.1
20260509111803 55 301 0.9 1.7 0.00 0.00 0.00 83 1013.1
20260509110903 55 322 0.9 1.7 0.00 0.00 0.00 83 1013.2
20260509110003 55 315 0.9 1.7 0.00 0.00 0.00 83 1013.3
20260509105403 55 311 0.9 1.7 0.00 0.00 0.00 83 1013.2
20260509104503 55 319 0.9 1.7 0.00 0.00 0.00 83 1013.2
20260509103603 55 328 0.9 1.7 0.00 0.00 0.00 82 1013.3
20260509102724 55 322 0.0 1.7 0.00 0.00 0.00 82 1013.4
20260509101803 55 326 0.9 1.7 0.00 0.00 0.00 85 1013.4
20260509100903 56 321 0.9 2.6 0.00 0.00 0.00 82 1013.5
20260509100004 56 299 0.9 1.7 0.00 0.00 0.00 82 1013.5
20260509095424 56 307 0.9 1.7 0.00 0.00 0.00 82 1013.6
20260509094503 56 333 0.9 1.7 0.00 0.00 0.00 82 1013.6
20260509093604 56 323 0.9 1.7 0.00 0.00 0.00 81 1013.6
20260509092703 56 321 0.9 1.7 0.00 0.00 0.00 81 1013.6
20260509091803 56 307 0.9 2.6 0.00 0.00 0.00 81 1013.7
20260509090903 56 313 0.9 1.7 0.00 0.00 0.00 80 1013.7
20260509090024 57 316 0.9 1.7 0.00 0.00 0.00 80 1013.7
20260509085403 57 313 0.9 1.7 0.00 0.00 0.00 80 1013.7
20260509084503 57 324 0.9 2.6 0.00 0.00 0.00 80 1013.7
20260509083603 57 328 0.9 2.6 0.00 0.00 0.00 79 1013.8
20260509082703 57 314 0.9 1.7 0.00 0.00 0.00 79 1013.9
20260509081803 58 307 0.9 1.7 0.00 0.00 0.00 78 1013.7
20260509080903 58 311 0.9 1.7 0.00 0.00 0.00 77 1013.6
20260509080024 58 316 0.9 1.7 0.00 0.00 0.00 77 1013.6
20260509075425 58 305 0.9 1.7 0.00 0.00 0.00 76 1013.6
20260509074524 59 313 0.9 2.6 0.00 0.00 0.00 76 1013.7
20260509073603 59 319 0.9 2.6 0.00 0.00 0.00 75 1013.7
20260509072703 60 304 0.9 1.7 0.00 0.00 0.00 74 1013.7
20260509071803 60 303 0.9 1.7 0.00 0.00 0.00 73 1013.7
20260509070903 60 299 0.0 1.7 0.00 0.00 0.00 72 1013.5
20260509070003 60 295 0.9 1.7 0.00 0.00 0.00 72 1013.5
20260509065403 61 285 0.9 2.6 0.00 0.00 0.00 71 1013.5
20260509064503 61 270 0.9 3.5 0.00 0.00 0.00 71 1013.5
20260509063603 61 256 0.0 2.6 0.00 0.00 0.00 70 1013.5
20260509062703 61 277 0.0 1.7 0.00 0.00 0.00 70 1013.5
20260509061803 62 262 0.9 2.6 0.00 0.00 0.00 70 1013.6
20260509060903 62 259 0.9 4.3 0.00 0.00 0.00 70 1013.5
20260509060003 62 253 0.9 6.1 0.00 0.00 0.00 70 1013.6
20260509055403 62 243 0.9 5.2 0.00 0.00 0.00 70 1013.6
20260509054503 62 248 0.9 3.5 0.00 0.00 0.00 70 1013.7
20260509053603 63 246 0.9 3.5 0.00 0.00 0.00 69 1013.7
20260509052703 63 250 0.9 2.6 0.00 0.00 0.00 68 1013.8
20260509051804 64 246 1.7 3.5 0.00 0.00 0.00 68 1013.8
20260509050903 64 247 1.7 4.3 0.00 0.00 0.00 68 1013.7
20260509050003 64 250 1.7 3.5 0.00 0.00 0.00 68 1013.7
20260509045424 64 249 1.7 3.5 0.00 0.00 0.00 68 1013.7
20260509044524 65 252 0.9 3.5 0.00 0.00 0.00 68 1013.5
20260509043624 65 251 1.7 5.2 0.00 0.00 0.00 67 1013.6
20260509042724 66 244 1.7 5.2 0.00 0.00 0.00 67 1013.6
20260509041824 66 246 1.7 3.5 0.00 0.00 0.00 66 1013.6
20260509040924 67 255 1.7 3.5 0.00 0.00 0.00 65 1013.6
20260509040024 67 255 0.9 2.6 0.00 0.00 0.00 65 1013.4
20260509035424 68 256 1.7 4.3 0.00 0.00 0.00 64 1013.4
20260509034524 68 245 1.7 4.3 0.00 0.00 0.00 63 1013.3
20260509033625 69 245 1.7 5.2 0.00 0.00 0.00 63 1013.3
20260509032703 69 245 1.7 5.2 0.00 0.00 0.00 62 1013.1
20260509031803 70 248 1.7 4.3 0.00 0.00 0.00 60 1013.1
20260509030903 71 246 1.7 5.2 0.00 0.00 0.00 59 1013.1
20260509030003 72 249 1.7 5.2 0.00 0.00 0.00 56 1013.1
20260509025405 73 250 1.7 5.2 0.00 0.00 0.00 55 1013.2
20260509024503 74 253 1.7 6.1 0.00 0.00 0.00 53 1013.0
20260509023603 76 250 2.6 6.1 0.00 0.00 0.00 50 1012.9
20260509022703 77 263 2.6 7.8 0.00 0.00 0.00 50 1013.1
20260509021803 78 276 2.6 7.0 0.00 0.00 0.00 48 1013.1
20260509020903 78 275 2.6 9.6 0.00 0.00 0.00 47 1013.0
20260509020003 79 258 2.6 11.3 0.00 0.00 0.00 45 1013.1
20260509015424 80 258 2.6 11.3 0.00 0.00 0.00 44 1013.0
20260509014503 81 258 2.6 8.7 0.00 0.00 0.00 44 1013.0
20260509013603 82 267 3.5 8.7 0.00 0.00 0.00 41 1013.0
20260509012703 84 281 2.6 7.8 0.00 0.00 0.00 41 1013.0
20260509011803 85 280 3.5 10.4 0.00 0.00 0.00 40 1013.0
20260509010903 85 284 3.5 9.6 0.00 0.00 0.00 40 1012.9
20260509010003 86 299 2.6 8.7 0.00 0.00 0.00 41 1012.9
20260509005424 85 313 3.5 8.7 0.00 0.00 0.00 42 1013.1
20260509004524 85 321 4.3 9.6 0.00 0.00 0.00 47 1013.1
20260509003603 85 319 4.3 9.6 0.00 0.00 0.00 47 1013.1
20260509002704 85 325 5.2 8.7 0.00 0.00 0.00 47 1013.1